QPF
0.00 0.00 0.01 0.01 0.01 0.00 0.00 0.00 0.01 0.00 0.01 0.01 0.01 0.01 0.01 0.01 0.01 0.01 0.01 0.01 0.02 0.02 0.03 0.04 0.05 0.05 0.03 0.04 0.03 0.02 0.02 0.02 0.02 0.02 0.02 0.03 0.04 0.04 0.04 0.04 0.04 0.04 0.04 0.05
0.01 0.01 0.01 0.01 0.01 0.01 0.01 0.01 0.00 0.00 0.00 0.00 0.00 0.00 0.01 0.01 0.01 0.01 0.01 0.01 0.02 0.03 0.02 0.02 0.03 0.02 0.01 0.02 0.02 0.01 0.01 0.01 0.01 0.02 0.02 0.02 0.02 0.03 0.04 0.04 0.04 0.05 0.06 0.07
0.01 0.01 0.01 0.01 0.01 0.01 0.01 0.01 0.00 0.00 0.00 0.01 0.01 0.01 0.01 0.02 0.01 0.01 0.01 0.02 0.02 0.02 0.02 0.01 0.01 0.01 0.01 0.01 0.01 0.01 0.01 0.02 0.02 0.02 0.02 0.01 0.02 0.02 0.03 0.02 0.02 0.03 0.05 0.06
0.01 0.01 0.01 0.02 0.01 0.01 0.02 0.01 0.01 0.01 0.01 0.02 0.03 0.03 0.02 0.02 0.02 0.02 0.01 0.02 0.02 0.01 0.01 0.01 0.01 0.01 0.01 0.01 0.01 0.02 0.02 0.02 0.02 0.01 0.01 0.01 0.01 0.01 0.00 0.01 0.01 0.01 0.03 0.04
0.00 0.01 0.01 0.01 0.02 0.02 0.02 0.03 0.03 0.02 0.02 0.03 0.05 0.05 0.03 0.03 0.03 0.02 0.01 0.02 0.03 0.01 0.01 0.01 0.00 0.00 0.01 0.01 0.01 0.01 0.02 0.02 0.02 0.02 0.01 0.00 0.00 0.00 0.01 0.01 0.01 0.02 0.04 0.04
0.00 0.01 0.02 0.02 0.01 0.01 0.02 0.02 0.03 0.03 0.02 0.02 0.03 0.03 0.03 0.02 0.02 0.02 0.01 0.01 0.02 0.02 0.01 0.01 0.00 0.00 0.00 0.01 0.01 0.00 0.01 0.01 0.01 0.01 0.01 0.00 0.00 0.00 0.01 0.01 0.02 0.03 0.04 0.04
0.01 0.01 0.02 0.02 0.01 0.01 0.01 0.02 0.02 0.02 0.02 0.02 0.03 0.03 0.03 0.02 0.02 0.01 0.01 0.01 0.01 0.01 0.01 0.01 0.01 0.00 0.00 0.00 0.00 0.00 0.00 0.00 0.00 0.01 0.01 0.01 0.00 0.01 0.01 0.01 0.01 0.01 0.02 0.04
0.01 0.02 0.02 0.01 0.01 0.01 0.01 0.01 0.01 0.02 0.02 0.02 0.02 0.02 0.02 0.02 0.02 0.02 0.01 0.00 0.01 0.01 0.01 0.01 0.01 0.00 0.00 0.00 0.00 0.00 0.00 0.00 0.00 0.00 0.00 0.00 0.00 0.01 0.01 0.01 0.01 0.01 0.02 0.03
0.02 0.02 0.02 0.01 0.01 0.01 0.01 0.01 0.01 0.01 0.01 0.01 0.01 0.01 0.01 0.01 0.01 0.01 0.01 0.00 0.00 0.00 0.01 0.00 0.00 0.00 0.00 0.00 0.00 0.00 0.00 0.00 0.00 0.00 0.00 0.00 0.00 0.00 0.00 0.01 0.01 0.01 0.01 0.02
0.03 0.03 0.02 0.01 0.01 0.01 0.01 0.01 0.01 0.00 0.00 0.00 0.00 0.00 0.00 0.00 0.00 0.00 0.00 0.00 0.00 0.00 0.00 0.00 0.00 0.00 0.00 0.00 0.00 0.00 0.00 0.00 0.00 0.00 0.00 0.00 0.00 0.00 0.00 0.00 0.01 0.01 0.01 0.01
0.02 0.02 0.01 0.01 0.01 0.01 0.00 0.00 0.00 0.00 0.00 0.00 0.00 0.00 0.00 0.00 0.00 0.00 0.00 0.00 0.00 0.00 0.00 0.00 0.00 0.00 0.00 0.00 0.00 0.00 0.00 0.00 0.00 0.00 0.00 0.00 0.00 0.00 0.00 0.00 0.00 0.00 0.00 0.00
0.01 0.01 0.01 0.01 0.01 0.01 0.00 0.00 0.00 0.00 0.00 0.00 0.00 0.00 0.00 0.00 0.00 0.00 0.00 0.00 0.00 0.00 0.00 0.00 0.00 0.00 0.00 0.00 0.00 0.00 0.00 0.00 0.00 0.00 0.00 0.00 0.01 0.00 0.00 0.00 0.00 0.00 0.00 0.00
0.01 0.01 0.00 0.00 0.01 0.01 0.01 0.01 0.01 0.01 0.01 0.00 0.00 0.00 0.00 0.00 0.00 0.00 0.00 0.00 0.00 0.00 0.00 0.00 0.00 0.00 0.00 0.00 0.00 0.00 0.00 0.00 0.00 0.00 0.00 0.00 0.00 0.00 0.00 0.00 0.00 0.00 0.00 0.00
0.01 0.00 0.00 0.00 0.00 0.01 0.01 0.01 0.01 0.00 0.00 0.00 0.00 0.00 0.00 0.00 0.00 0.00 0.00 0.00 0.00 0.00 0.00 0.00 0.00 0.00 0.00 0.00 0.00 0.00 0.00 0.00 0.00 0.00 0.01 0.00 0.00 0.00 0.00 0.00 0.00 0.00 0.00 0.00
0.01 0.00 0.00 0.00 0.00 0.00 0.00 0.00 0.00 0.00 0.00 0.00 0.00 0.00 0.00 0.00 0.00 0.00 0.00 0.00 0.00 0.00 0.00 0.00 0.00 0.00 0.00 0.00 0.00 0.00 0.00 0.00 0.00 0.00 0.01 0.01 0.01 0.01 0.00 0.00 0.00 0.00 0.00 0.00
0.00 0.00 0.00 0.00 0.00 0.00 0.00 0.00 0.00 0.00 0.00 0.00 0.00 0.00 0.00 0.00 0.00 0.00 0.00 0.00 0.00 0.00 0.00 0.00 0.00 0.00 0.00 0.00 0.00 0.00 0.00 0.00 0.00 0.00 0.00 0.01 0.01 0.01 0.01 0.00 0.00 0.01 0.00 0.00
0.00 0.00 0.00 0.00 0.00 0.00 0.00 0.00 0.00 0.00 0.00 0.00 0.00 0.00 0.00 0.00 0.00 0.00 0.00 0.00 0.00 0.00 0.01 0.00 0.00 0.00 0.00 0.00 0.00 0.00 0.00 0.00 0.00 0.00 0.01 0.01 0.01 0.01 0.01 0.01 0.01 0.01 0.01 0.01
0.00 0.00 0.00 0.00 0.00 0.00 0.00 0.00 0.01 0.01 0.00 0.01 0.01 0.01 0.00 0.00 0.00 0.00 0.00 0.00 0.00 0.00 0.01 0.01 0.01 0.00 0.00 0.00 0.00 0.00 0.00 0.00 0.00 0.01 0.01 0.01 0.01 0.01 0.01 0.01 0.01 0.01 0.01 0.01
0.00 0.00 0.00 0.00 0.00 0.00 0.00 0.00 0.01 0.00 0.00 0.01 0.01 0.00 0.00 0.00 0.01 0.01 0.00 0.00 0.00 0.00 0.01 0.01 0.01 0.01 0.00 0.00 0.00 0.00 0.00 0.00 0.00 0.00 0.01 0.01 0.01 0.01 0.02 0.02 0.02 0.01 0.01 0.01
0.01 0.01 0.00 0.00 0.01 0.01 0.01 0.01 0.01 0.00 0.00 0.00 0.01 0.01 0.01 0.01 0.02 0.01 0.01 0.01 0.00 0.00 0.00 0.01 0.01 0.00 0.00 0.00 0.00 0.00 0.00 0.00 0.00 0.01 0.01 0.01 0.01 0.01 0.02 0.02 0.02 0.02 0.01 0.01
0.01 0.01 0.01 0.02 0.02 0.02 0.01 0.01 0.01 0.01 0.00 0.01 0.01 0.02 0.02 0.02 0.01 0.01 0.01 0.01 0.01 0.01 0.01 0.01 0.01 0.00 0.00 0.00 0.00 0.00 0.00 0.00 0.01 0.01 0.01 0.01 0.01 0.02 0.03 0.03 0.02 0.02 0.01 0.01
0.01 0.02 0.02 0.02 0.02 0.01 0.01 0.01 0.01 0.01 0.01 0.02 0.02 0.02 0.02 0.02 0.02 0.02 0.01 0.01 0.01 0.01 0.01 0.01 0.01 0.01 0.01 0.01 0.01 0.01 0.01 0.01 0.01 0.02 0.02 0.02 0.02 0.03 0.03 0.03 0.03 0.02 0.02 0.01
0.03 0.02 0.02 0.02 0.01 0.01 0.01 0.01 0.01 0.01 0.01 0.01 0.01 0.01 0.01 0.01 0.01 0.02 0.02 0.03 0.03 0.03 0.02 0.02 0.02 0.02 0.02 0.02 0.02 0.03 0.04 0.03 0.03 0.03 0.02 0.02 0.02 0.04 0.04 0.04 0.03 0.03 0.02 0.01
0.01 0.01 0.01 0.01 0.01 0.01 0.01 0.01 0.01 0.01 0.00 0.00 0.01 0.01 0.01 0.01 0.01 0.02 0.03 0.03 0.03 0.02 0.02 0.02 0.01 0.01 0.01 0.01 0.02 0.03 0.04 0.04 0.04 0.03 0.03 0.03 0.03 0.04 0.03 0.03 0.02 0.02 0.02 0.01
0.03 0.01 0.01 0.01 0.00 0.01 0.01 0.01 0.01 0.01 0.00 0.00 0.01 0.01 0.01 0.01 0.01 0.02 0.02 0.02 0.01 0.01 0.01 0.01 0.01 0.01 0.01 0.01 0.01 0.01 0.02 0.03 0.04 0.04 0.04 0.04 0.05 0.04 0.02 0.01 0.01 0.01 0.01 0.01
0.03 0.02 0.02 0.01 0.01 0.01 0.01 0.01 0.01 0.01 0.01 0.00 0.01 0.01 0.02 0.02 0.02 0.01 0.01 0.01 0.01 0.00 0.00 0.00 0.00 0.00 0.00 0.01 0.01 0.01 0.02 0.02 0.04 0.04 0.04 0.03 0.03 0.04 0.02 0.01 0.01 0.01 0.01 0.01
0.03 0.02 0.02 0.02 0.01 0.01 0.01 0.01 0.01 0.01 0.01 0.01 0.01 0.01 0.01 0.02 0.02 0.01 0.01 0.01 0.00 0.00 0.00 0.00 0.00 0.00 0.01 0.01 0.01 0.01 0.01 0.01 0.02 0.02 0.02 0.03 0.03 0.03 0.03 0.02 0.02 0.01 0.01 0.01
MSLP
1013.90 1014.57 1015.18 1015.72 1016.15 1016.45 1016.57 1016.53 1016.32 1015.98 1015.54 1015.06 1014.61 1014.24 1014.00 1013.91 1013.95 1014.13 1014.38 1014.68 1014.98 1015.24 1015.46 1015.64 1015.79 1015.94 1016.12 1016.34 1016.61 1016.92 1017.27 1017.62 1017.95 1018.25 1018.48 1018.65 1018.77 1018.85 1018.91 1018.97 1019.05 1019.14 1019.24 1019.35
1014.02 1014.59 1015.05 1015.39 1015.59 1015.66 1015.61 1015.43 1015.16 1014.83 1014.48 1014.15 1013.87 1013.68 1013.60 1013.61 1013.72 1013.89 1014.09 1014.31 1014.51 1014.68 1014.83 1014.97 1015.11 1015.29 1015.51 1015.79 1016.11 1016.48 1016.86 1017.23 1017.58 1017.87 1018.11 1018.29 1018.43 1018.55 1018.65 1018.76 1018.88 1019.02 1019.16 1019.30
1014.18 1014.63 1014.93 1015.07 1015.07 1014.94 1014.71 1014.42 1014.09 1013.76 1013.48 1013.26 1013.12 1013.07 1013.11 1013.21 1013.37 1013.54 1013.72 1013.88 1014.02 1014.13 1014.24 1014.36 1014.51 1014.72 1014.98 1015.29 1015.66 1016.05 1016.44 1016.82 1017.16 1017.45 1017.69 1017.88 1018.05 1018.20 1018.35 1018.51 1018.68 1018.86 1019.04 1019.20
1014.30 1014.62 1014.76 1014.73 1014.55 1014.25 1013.88 1013.48 1013.10 1012.77 1012.53 1012.38 1012.34 1012.40 1012.53 1012.71 1012.92 1013.11 1013.29 1013.44 1013.56 1013.66 1013.77 1013.91 1014.09 1014.32 1014.61 1014.96 1015.34 1015.73 1016.11 1016.46 1016.78 1017.05 1017.28 1017.48 1017.66 1017.85 1018.05 1018.26 1018.47 1018.69 1018.88 1019.05
1014.27 1014.46 1014.46 1014.29 1013.97 1013.54 1013.06 1012.59 1012.16 1011.82 1011.60 1011.51 1011.54 1011.67 1011.87 1012.12 1012.37 1012.61 1012.82 1013.00 1013.15 1013.29 1013.45 1013.63 1013.86 1014.13 1014.45 1014.81 1015.18 1015.55 1015.90 1016.21 1016.48 1016.72 1016.93 1017.13 1017.33 1017.54 1017.77 1018.01 1018.26 1018.49 1018.69 1018.85
1013.99 1014.05 1013.93 1013.65 1013.23 1012.72 1012.18 1011.67 1011.22 1010.89 1010.69 1010.63 1010.70 1010.88 1011.14 1011.44 1011.75 1012.04 1012.32 1012.56 1012.79 1013.01 1013.24 1013.49 1013.78 1014.10 1014.45 1014.81 1015.17 1015.50 1015.80 1016.05 1016.28 1016.47 1016.66 1016.84 1017.05 1017.28 1017.52 1017.78 1018.04 1018.27 1018.46 1018.59
1013.36 1013.31 1013.10 1012.75 1012.29 1011.75 1011.20 1010.69 1010.26 1009.94 1009.77 1009.73 1009.84 1010.06 1010.35 1010.70 1011.06 1011.42 1011.77 1012.10 1012.42 1012.74 1013.06 1013.40 1013.76 1014.13 1014.50 1014.86 1015.20 1015.49 1015.74 1015.95 1016.13 1016.28 1016.44 1016.62 1016.82 1017.05 1017.30 1017.56 1017.81 1018.02 1018.18 1018.28
1012.39 1012.24 1011.97 1011.59 1011.13 1010.62 1010.11 1009.65 1009.26 1008.99 1008.86 1008.86 1008.99 1009.23 1009.55 1009.93 1010.34 1010.76 1011.18 1011.59 1012.00 1012.42 1012.83 1013.25 1013.68 1014.09 1014.49 1014.85 1015.17 1015.43 1015.65 1015.82 1015.97 1016.10 1016.25 1016.42 1016.61 1016.84 1017.09 1017.34 1017.57 1017.76 1017.88 1017.95
1011.14 1010.92 1010.62 1010.25 1009.83 1009.39 1008.97 1008.59 1008.29 1008.09 1008.00 1008.04 1008.20 1008.45 1008.79 1009.18 1009.61 1010.07 1010.53 1011.01 1011.49 1011.98 1012.47 1012.95 1013.42 1013.88 1014.29 1014.66 1014.98 1015.23 1015.44 1015.60 1015.74 1015.87 1016.02 1016.20 1016.40 1016.62 1016.86 1017.10 1017.30 1017.46 1017.55 1017.59
1009.76 1009.48 1009.18 1008.85 1008.51 1008.17 1007.85 1007.59 1007.39 1007.28 1007.26 1007.34 1007.51 1007.77 1008.10 1008.49 1008.92 1009.38 1009.86 1010.36 1010.88 1011.40 1011.92 1012.45 1012.95 1013.43 1013.86 1014.24 1014.57 1014.84 1015.05 1015.24 1015.40 1015.56 1015.73 1015.92 1016.13 1016.36 1016.59 1016.81 1016.99 1017.12 1017.19 1017.21
1008.44 1008.13 1007.84 1007.56 1007.31 1007.08 1006.89 1006.74 1006.65 1006.63 1006.67 1006.79 1006.98 1007.24 1007.55 1007.90 1008.30 1008.73 1009.20 1009.68 1010.19 1010.71 1011.23 1011.76 1012.27 1012.75 1013.20 1013.60 1013.95 1014.24 1014.50 1014.73 1014.94 1015.14 1015.35 1015.57 1015.80 1016.03 1016.26 1016.46 1016.62 1016.73 1016.79 1016.80
1007.35 1007.03 1006.77 1006.55 1006.37 1006.25 1006.16 1006.12 1006.13 1006.18 1006.28 1006.43 1006.62 1006.86 1007.14 1007.45 1007.80 1008.18 1008.59 1009.02 1009.48 1009.96 1010.46 1010.95 1011.45 1011.92 1012.37 1012.79 1013.16 1013.50 1013.81 1014.10 1014.36 1014.62 1014.87 1015.13 1015.38 1015.61 1015.83 1016.01 1016.16 1016.25 1016.31 1016.32
1006.63 1006.31 1006.07 1005.89 1005.78 1005.72 1005.71 1005.74 1005.81 1005.92 1006.05 1006.22 1006.41 1006.62 1006.86 1007.13 1007.42 1007.73 1008.07 1008.44 1008.84 1009.26 1009.69 1010.14 1010.60 1011.05 1011.49 1011.91 1012.32 1012.69 1013.05 1013.39 1013.71 1014.02 1014.31 1014.59 1014.85 1015.08 1015.29 1015.45 1015.58 1015.66 1015.71 1015.73
1006.31 1006.00 1005.77 1005.61 1005.52 1005.49 1005.52 1005.58 1005.68 1005.81 1005.95 1006.12 1006.30 1006.49 1006.69 1006.91 1007.15 1007.41 1007.69 1007.99 1008.31 1008.66 1009.03 1009.42 1009.82 1010.24 1010.66 1011.07 1011.48 1011.89 1012.28 1012.65 1013.01 1013.35 1013.67 1013.95 1014.21 1014.43 1014.61 1014.75 1014.85 1014.92 1014.97 1015.00
1006.35 1006.04 1005.81 1005.65 1005.55 1005.51 1005.53 1005.58 1005.67 1005.78 1005.92 1006.07 1006.23 1006.40 1006.58 1006.77 1006.98 1007.19 1007.42 1007.67 1007.93 1008.22 1008.53 1008.85 1009.20 1009.56 1009.94 1010.33 1010.73 1011.13 1011.52 1011.91 1012.27 1012.62 1012.93 1013.21 1013.45 1013.64 1013.79 1013.90 1013.97 1014.03 1014.06 1014.10
1006.65 1006.34 1006.09 1005.89 1005.75 1005.67 1005.64 1005.65 1005.69 1005.77 1005.87 1006.00 1006.14 1006.30 1006.48 1006.66 1006.85 1007.05 1007.26 1007.47 1007.69 1007.93 1008.18 1008.44 1008.72 1009.03 1009.35 1009.69 1010.05 1010.42 1010.79 1011.15 1011.50 1011.82 1012.11 1012.35 1012.55 1012.71 1012.82 1012.89 1012.94 1012.97 1013.00 1013.03
1007.06 1006.74 1006.46 1006.22 1006.02 1005.87 1005.77 1005.71 1005.69 1005.72 1005.78 1005.88 1006.01 1006.17 1006.34 1006.53 1006.73 1006.93 1007.14 1007.34 1007.54 1007.74 1007.94 1008.15 1008.37 1008.60 1008.86 1009.13 1009.43 1009.73 1010.05 1010.36 1010.66 1010.93 1011.18 1011.37 1011.53 1011.64 1011.71 1011.75 1011.77 1011.78 1011.80 1011.82
1007.45 1007.12 1006.81 1006.51 1006.25 1006.03 1005.85 1005.72 1005.64 1005.61 1005.63 1005.70 1005.81 1005.96 1006.15 1006.35 1006.57 1006.79 1007.00 1007.20 1007.39 1007.57 1007.73 1007.89 1008.05 1008.21 1008.39 1008.58 1008.79 1009.02 1009.26 1009.50 1009.74 1009.95 1010.14 1010.29 1010.40 1010.47 1010.51 1010.52 1010.52 1010.51 1010.51 1010.53
1007.69 1007.35 1007.01 1006.68 1006.38 1006.09 1005.86 1005.66 1005.52 1005.44 1005.42 1005.46 1005.56 1005.70 1005.89 1006.10 1006.33 1006.56 1006.78 1006.99 1007.17 1007.32 1007.45 1007.56 1007.66 1007.75 1007.85 1007.96 1008.09 1008.23 1008.39 1008.55 1008.71 1008.87 1009.00 1009.11 1009.18 1009.23 1009.24 1009.24 1009.22 1009.21 1009.20 1009.20
1007.71 1007.37 1007.02 1006.68 1006.35 1006.04 1005.77 1005.54 1005.36 1005.24 1005.19 1005.20 1005.27 1005.39 1005.56 1005.77 1005.99 1006.22 1006.43 1006.63 1006.79 1006.92 1007.01 1007.08 1007.12 1007.15 1007.17 1007.21 1007.26 1007.32 1007.40 1007.50 1007.60 1007.70 1007.79 1007.86 1007.92 1007.95 1007.95 1007.95 1007.93 1007.91 1007.89 1007.89
1007.45 1007.12 1006.79 1006.46 1006.15 1005.86 1005.59 1005.36 1005.17 1005.03 1004.95 1004.92 1004.96 1005.05 1005.18 1005.35 1005.53 1005.73 1005.91 1006.08 1006.21 1006.30 1006.36 1006.38 1006.38 1006.36 1006.33 1006.30 1006.28 1006.28 1006.31 1006.35 1006.40 1006.46 1006.53 1006.59 1006.63 1006.66 1006.67 1006.66 1006.65 1006.63 1006.61 1006.60
1006.89 1006.58 1006.30 1006.02 1005.76 1005.52 1005.29 1005.09 1004.92 1004.78 1004.68 1004.62 1004.61 1004.65 1004.72 1004.82 1004.95 1005.08 1005.21 1005.33 1005.41 1005.47 1005.49 1005.47 1005.43 1005.37 1005.30 1005.23 1005.17 1005.13 1005.12 1005.12 1005.14 1005.18 1005.23 1005.28 1005.32 1005.36 1005.38 1005.38 1005.37 1005.35 1005.33 1005.31
1005.99 1005.73 1005.51 1005.31 1005.14 1004.98 1004.83 1004.69 1004.55 1004.43 1004.33 1004.24 1004.19 1004.16 1004.16 1004.18 1004.23 1004.28 1004.34 1004.39 1004.42 1004.44 1004.42 1004.38 1004.31 1004.23 1004.13 1004.04 1003.96 1003.89 1003.85 1003.83 1003.83 1003.85 1003.89 1003.94 1003.98 1004.01 1004.04 1004.05 1004.04 1004.02 1003.99 1003.96
1004.76 1004.55 1004.40 1004.30 1004.23 1004.18 1004.13 1004.07 1004.00 1003.91 1003.82 1003.72 1003.62 1003.53 1003.46 1003.40 1003.36 1003.33 1003.32 1003.31 1003.29 1003.26 1003.21 1003.15 1003.07 1002.97 1002.87 1002.76 1002.66 1002.58 1002.52 1002.48 1002.46 1002.47 1002.49 1002.52 1002.55 1002.58 1002.60 1002.60 1002.59 1002.57 1002.53 1002.49
1003.19 1003.03 1002.96 1002.96 1003.00 1003.06 1003.11 1003.15 1003.15 1003.12 1003.06 1002.96 1002.84 1002.72 1002.59 1002.47 1002.36 1002.27 1002.19 1002.13 1002.07 1002.01 1001.94 1001.86 1001.77 1001.67 1001.56 1001.44 1001.33 1001.22 1001.14 1001.07 1001.02 1000.99 1000.98 1000.98 1000.99 1000.99 1000.99 1000.98 1000.96 1000.93 1000.88 1000.84
1001.33 1001.20 1001.19 1001.26 1001.40 1001.57 1001.73 1001.86 1001.96 1002.00 1001.98 1001.92 1001.81 1001.68 1001.54 1001.39 1001.25 1001.13 1001.02 1000.93 1000.85 1000.77 1000.69 1000.60 1000.50 1000.39 1000.26 1000.12 999.98 999.84 999.70 999.59 999.48 999.40 999.34 999.29 999.25 999.22 999.19 999.15 999.12 999.07 999.03 999.00
999.27 999.14 999.16 999.29 999.49 999.74 999.99 1000.22 1000.40 1000.52 1000.58 1000.58 1000.53 1000.44 1000.33 1000.20 1000.08 999.96 999.86 999.77 999.70 999.62 999.53 999.44 999.32 999.18 999.02 998.84 998.64 998.44 998.24 998.05 997.87 997.71 997.57 997.45 997.35 997.27 997.20 997.14 997.09 997.05 997.02 997.00
Thickness
5697 5705 5706 5705 5705 5704 5701 5695 5690 5694 5696 5703 5707 5708 5708 5706 5703 5700 5697 5694 5692 5689 5686 5684 5682 5680 5678 5675 5673 5670 5666 5664 5661 5659 5657 5655 5653 5652 5650 5649 5648 5647 5646 5645
5691 5699 5700 5697 5700 5701 5700 5698 5695 5696 5695 5705 5706 5703 5700 5698 5696 5693 5691 5688 5686 5683 5680 5678 5676 5674 5671 5668 5665 5663 5660 5656 5654 5652 5650 5648 5646 5645 5643 5642 5641 5640 5639 5638
5674 5686 5691 5680 5690 5693 5694 5696 5695 5690 5696 5698 5696 5695 5694 5692 5689 5687 5684 5682 5679 5677 5674 5671 5669 5667 5664 5661 5659 5656 5653 5650 5647 5645 5643 5641 5640 5637 5636 5634 5633 5632 5631 5630
5663 5672 5664 5678 5695 5695 5691 5690 5692 5694 5694 5693 5692 5690 5688 5686 5684 5680 5678 5675 5672 5670 5667 5665 5663 5660 5658 5655 5652 5649 5646 5643 5640 5638 5635 5634 5632 5630 5629 5627 5626 5625 5624 5623
5650 5652 5659 5675 5688 5688 5684 5681 5687 5686 5687 5685 5684 5682 5678 5679 5678 5676 5673 5670 5667 5664 5661 5658 5656 5654 5650 5647 5644 5641 5638 5636 5634 5631 5629 5627 5625 5624 5622 5620 5620 5619 5618 5616
5646 5648 5648 5668 5686 5691 5684 5671 5683 5682 5680 5677 5676 5667 5667 5674 5673 5669 5666 5663 5660 5657 5654 5651 5648 5646 5643 5639 5636 5634 5632 5630 5628 5625 5623 5620 5619 5617 5615 5614 5613 5613 5612 5610
5642 5644 5651 5671 5680 5683 5664 5667 5680 5678 5676 5672 5669 5668 5668 5668 5665 5662 5659 5655 5653 5649 5646 5643 5641 5638 5635 5632 5630 5628 5626 5624 5622 5619 5617 5615 5613 5611 5609 5608 5607 5606 5605 5604
5635 5637 5646 5671 5672 5666 5666 5672 5673 5672 5670 5667 5664 5663 5661 5659 5656 5653 5650 5647 5644 5640 5637 5635 5633 5630 5628 5625 5623 5621 5619 5617 5615 5613 5611 5609 5606 5604 5603 5602 5600 5599 5598 5597
5642 5645 5656 5662 5665 5668 5667 5665 5666 5665 5663 5660 5656 5654 5652 5650 5647 5644 5642 5639 5636 5633 5630 5627 5625 5623 5620 5619 5617 5614 5612 5609 5607 5605 5603 5601 5599 5598 5596 5594 5593 5592 5591 5590
5640 5647 5653 5657 5660 5661 5662 5661 5661 5659 5657 5655 5650 5648 5645 5641 5638 5636 5634 5631 5628 5625 5622 5620 5618 5616 5614 5612 5610 5607 5604 5602 5600 5598 5596 5594 5593 5591 5589 5588 5586 5585 5584 5584
5633 5640 5646 5650 5651 5653 5654 5655 5653 5652 5650 5648 5644 5640 5637 5633 5631 5629 5627 5624 5621 5618 5615 5613 5611 5609 5607 5605 5603 5600 5597 5595 5593 5592 5590 5588 5586 5585 5584 5583 5581 5580 5579 5578
5629 5635 5635 5639 5645 5647 5646 5645 5644 5643 5640 5639 5637 5634 5630 5626 5624 5621 5619 5616 5613 5610 5608 5606 5604 5602 5600 5598 5595 5593 5590 5588 5587 5585 5583 5581 5580 5579 5578 5577 5576 5575 5574 5573
5632 5635 5633 5635 5638 5639 5637 5637 5637 5636 5634 5630 5628 5626 5623 5619 5617 5615 5612 5610 5607 5605 5602 5600 5597 5596 5594 5592 5589 5587 5584 5582 5580 5578 5576 5575 5573 5572 5571 5572 5571 5571 5569 5568
5626 5626 5625 5627 5628 5630 5630 5630 5629 5627 5625 5624 5621 5618 5615 5612 5610 5608 5606 5605 5602 5599 5596 5594 5592 5590 5589 5586 5583 5581 5578 5576 5574 5571 5570 5568 5567 5566 5565 5565 5565 5565 5564 5562
5619 5619 5618 5619 5620 5621 5622 5621 5619 5616 5615 5614 5613 5611 5608 5606 5603 5602 5601 5599 5596 5593 5591 5588 5586 5585 5583 5580 5577 5575 5572 5570 5568 5566 5564 5562 5561 5560 5559 5559 5558 5558 5557 5557
5610 5611 5611 5611 5612 5613 5613 5613 5611 5610 5609 5607 5605 5604 5603 5601 5598 5596 5594 5591 5588 5587 5585 5583 5582 5581 5578 5575 5572 5569 5567 5565 5563 5560 5559 5557 5556 5554 5553 5553 5552 5552 5551 5550
5601 5601 5603 5603 5604 5605 5605 5606 5605 5604 5602 5601 5599 5598 5595 5593 5591 5589 5588 5586 5584 5582 5580 5578 5577 5575 5572 5570 5567 5564 5561 5559 5557 5555 5553 5552 5551 5549 5548 5547 5547 5547 5546 5545
5599 5599 5599 5598 5598 5598 5598 5599 5598 5597 5595 5595 5593 5591 5588 5586 5584 5584 5582 5580 5577 5576 5575 5573 5572 5569 5567 5564 5561 5558 5556 5554 5552 5550 5548 5547 5545 5544 5543 5542 5542 5541 5541 5539
5593 5593 5594 5594 5594 5593 5592 5591 5591 5590 5589 5588 5585 5583 5582 5581 5579 5577 5575 5572 5571 5570 5571 5569 5566 5564 5561 5559 5556 5552 5550 5549 5547 5545 5543 5541 5540 5539 5538 5537 5537 5536 5535 5534
5586 5587 5587 5587 5588 5586 5585 5584 5583 5582 5582 5581 5578 5576 5574 5574 5572 5570 5568 5567 5567 5567 5566 5563 5560 5558 5556 5553 5550 5548 5545 5543 5542 5541 5539 5537 5535 5534 5533 5533 5533 5532 5530 5529
5579 5580 5580 5580 5579 5579 5578 5577 5576 5575 5574 5573 5571 5569 5568 5567 5566 5564 5562 5561 5563 5562 5559 5557 5555 5553 5551 5548 5545 5543 5540 5538 5537 5536 5534 5533 5531 5530 5530 5529 5529 5528 5526 5525
5573 5573 5573 5572 5572 5571 5570 5570 5569 5568 5567 5565 5565 5564 5562 5561 5560 5558 5557 5557 5557 5556 5554 5552 5550 5548 5545 5542 5540 5539 5536 5535 5533 5532 5530 5529 5528 5527 5527 5526 5525 5524 5522 5522
5566 5566 5566 5566 5565 5564 5564 5563 5562 5561 5560 5559 5558 5557 5556 5555 5554 5553 5552 5553 5551 5550 5548 5546 5545 5543 5539 5537 5536 5534 5533 5531 5530 5529 5527 5527 5526 5525 5524 5523 5521 5520 5519 5519
5559 5560 5560 5559 5558 5557 5556 5556 5555 5555 5554 5554 5553 5552 5551 5549 5549 5549 5548 5547 5546 5544 5542 5541 5539 5537 5534 5533 5531 5530 5529 5528 5527 5526 5524 5523 5523 5522 5520 5519 5518 5517 5516 5515
5554 5553 5553 5552 5551 5550 5550 5550 5549 5549 5548 5548 5548 5547 5546 5545 5544 5544 5543 5542 5541 5539 5537 5536 5534 5531 5530 5529 5527 5526 5525 5524 5523 5522 5521 5520 5520 5519 5517 5516 5515 5514 5514 5513
5548 5547 5546 5546 5544 5544 5544 5543 5543 5542 5542 5542 5542 5542 5541 5540 5539 5538 5537 5537 5536 5534 5532 5531 5529 5527 5526 5525 5524 5523 5522 5521 5520 5518 5517 5517 5516 5515 5514 5513 5512 5512 5511 5510
5541 5541 5540 5540 5539 5539 5538 5538 5537 5537 5537 5536 5536 5536 5536 5535 5534 5533 5532 5531 5530 5529 5528 5526 5525 5524 5523 5522 5521 5520 5518 5517 5517 5516 5515 5514 5513 5512 5511 5510 5510 5509 5508 5507